Overview Statistics Trail Chart Weather Telemetry Raw packets
 

This is the latest recevied weather packets stored in our database for station/object KG4GJX. If no packets are shown the sender has not sent any weather packets the latest 10 day(s).

<< 24 25 26 27 28 29 30 >>
Time Temp. Humidity Pressure Rain* Wind** Luminosity Snow
1788113559 31.67° C 59% 1022 hPa 0 mm - - -
1788112895 31.11° C 61% 1022 hPa 0 mm - - -
1788112233 31.67° C 55% 1022 hPa 0 mm - - -
1788111570 31.67° C 59% 1022 hPa 0 mm - - -
1788110908 32.22° C 58% 1022.3 hPa 0 mm - - -
1788110246 32.78° C 60% 1022.6 hPa 0 mm - - -
1788109583 32.22° C 60% 1022.6 hPa 0 mm - - -
1788108921 31.67° C 60% 1023 hPa 0 mm - - -
1788108253 31.67° C 59% 1023 hPa 0 mm - - -
1788107591 31.67° C 63% 1023 hPa 0 mm - - -
1788106928 31.67° C 59% 1023 hPa 0 mm - - -
1788106266 31.67° C 61% 1023 hPa 0 mm - - -
1788105603 31.11° C 66% 1023 hPa 0 mm - - -
1788104941 30.56° C 69% 1023.3 hPa 0 mm - - -
1788104279 30° C 69% 1023.3 hPa 0 mm - - -
1788103616 29.44° C 73% 1023.3 hPa 0 mm - - -
1788102954 28.89° C 71% 1023.3 hPa 0 mm - - -
1788102298 28.89° C 75% 1023.3 hPa 0 mm - - -
1788101629 28.89° C 76% 1023.3 hPa 0 mm - - -
1788100966 28.89° C 80% 1023.3 hPa 0 mm - - -
1788100303 28.33° C 83% 1023.3 hPa 0 mm - - -
1788099641 27.78° C 87% 1023 hPa 0 mm - - -
1788098315 26.11° C 95% 1023.3 hPa 0 mm - - -
1788097653 25.56° C 100% 1023 hPa 0 mm - - -
1788096991 24.44° C 100% 1023.3 hPa 0 mm - - -

* Rain latest hour (hover to see other rain measurements)
** Current wind speed in m/s (hover to see current wind gust speed)